Location: Bletchingley
(51.2333°N, 0.1000°W)
Time: 05:13:46
(UTC+00:00)

Cosmos 1536 Rocket - Pass Details

Date: 18 September 2020
Orbit: 606 x 631 km, 82.5° (Epoch: 20 October)

Event Time Altitude Azimuth Distance (km) Brightness Sun altitude
Rises 20:08:19 0° 346° (NNW) 2,914 7.7 -19.0°
Reaches altitude 10° 20:10:35 10° 342° (NNW) 2,007 6.8 -19.3°
Maximum altitude 20:14:55 55° 265° (W) 761 4.2 -19.9°
Enters shadow 20:18:27 15° 191° (S) 1,690 5.6 -20.4°
